Tracking 29892 objects as of 21-Nov-2024
HD Live streaming from Space Station
objects crossing your sky now

STARLINK-4052

Track STARLINK-4052 now!
10-day predictions
STARLINK-4052 is classified as:


NORAD ID: 53171
Int'l Code: 2022-083AR
Perigee: 546.0 km
Apogee: 547.8 km
Inclination: 53.2 °
Period: 95.4 minutes
Semi major axis: 6917 km
RCS: Unknown
Launch date: July 17, 2022
Source: United States (US)
Launch site: AIR FORCE EASTERN TEST RANGE (AFETR)
Your satellite tracking list
Your tracking list is empty




NASA's NSSDC Master Catalog

Two Line Element Set (TLE):
1 53171U 22083AR  24325.41413054  .00000097  00000-0  24177-4 0  9991
2 53171  53.2161 102.9848 0001318  97.9726 262.1416 15.08833674130171
Source of the keplerian elements: AFSPC